Weather in Znamenka

Russia / Karachay-Cherkess Republic     44°08′50″N   42°03′25″E
temp.,
°C
wind,
m/s
gust,
m/s
humid.,
%
clouds,
%
prec.,
mm/h
press.,
hPa
HPBL,
m
19 april, mon
mon1900:00+12s2288100 0.1 101520
03:00+11s1181100 0.1 101511
06:00+12ssw2381100 0.0 101440
09:00+12se1190100 1.8 101640
12:00+15sse4776100 0.5 1013342
15:00+19nnw6662100 1.1 1013908
18:00+15nne2382100 0.3 1015389
21:00+13e369397 1.1 1015221
20 april, tue
tue2000:00+12se41090100 0.0 1012301
03:00+12ese3592100 0.0 1009103
06:00+12se2382100 0.0 100741
09:00+18ese3563100 0.0 1004226
12:00+26sw1736100 0.0 10021509
15:00+20nnw8768100 0.0 1005613
18:00+14nw5890100 0.5 1009728
21:00+12n3579100 0.9 1012506
21 april, wed
wed2100:00+10n1472100 0.1 1014388
03:00+9n2579100 0.1 1016463
06:00+8e3490100 2.0 1017254
09:00+8ene2380100 3.1 1019323
12:00+10ne2373100 0.2 1019583
15:00+10ne3374100 0.3 1019711
18:00+8ene1292100 2.0 1021192
21:00+8e1592100 2.1 1022287
22 april, thu
thu2200:00+8se1190100 0.0 102124
03:00+8sse0190100 0.0 102114
06:00+8n1193100 0.2 102229
09:00+8n1193100 0.8 1023180
12:00+9e2388100 0.3 1023461
15:00+12ene4477100 0.3 1022751
18:00+10ene3586100 0.3 1022282
21:00+9e2294100 0.3 102372
23 april, fri
fri2300:00+8se1191100 0.4 102312
03:00+7se119165 0.4 102316
06:00+7sw118922 0.0 102417
09:00+12wnw22684 0.1 1023707
12:00+15n225919 1.3 10221327
15:00+15n335587 2.6 10221376
18:00+13n12685 0.6 102277
21:00+9s11805 1.1 102310